This demonstration page uses our WeatherBlox Daily Observations layout. Learn more.

Left ArrowRight Arrow

Hourly Observations for June 17, 2021

Temp ( °F °C ) Dew Point ( °F °C ) Humidity (%) Winds ( mph kmh ) Pressure ( in mb ) Visibility ( mi km ) Precip ( " mm )
12:53 am 00:53 Clear 82 27.8 50 10 33 33 SE 9 15 29.93 1013 10 16 0.00 0.00
1:53 am 01:53 Clear 78 25.6 50 10 37 37 SE 9 15 29.93 1014 10 16 0.00 0.00
2:53 am 02:53 Clear 76 24.4 52 11.1 43 43 SE 8 13 29.93 1014 10 16 0.00 0.00
3:53 am 03:53 Clear 74 23.3 53 11.7 48 48 SE 7 11 29.93 1013 10 16 0.00 0.00
4:53 am 04:53 Clear 73 22.8 55 12.8 53 53 SE 8 13 29.93 1014 10 16 0.00 0.00
5:53 am 05:53 Clear 72 22.2 56 13.3 57 57 SE 9 15 29.93 1013 10 16 0.00 0.00
6:53 am 06:53 Sunny 72 22.2 58 14.4 61 61 ESE 8 13 29.94 1014 10 16 0.00 0.00
7:53 am 07:53 Sunny 74 23.3 58 14.4 57 57 SE 9 15 29.94 1014 10 16 0.00 0.00
8:53 am 08:53 Sunny 78 25.6 59 15 52 52 SSE 7 11 29.95 1014 10 16 0.00 0.00
9:53 am 09:53 Sunny 82 27.8 59 15 46 46 SSE 12 19 29.96 1015 10 16 0.00 0.00
10:53 am 10:53 Sunny 87 30.6 55 12.8 34 34 S 10 17 29.95 1014 10 16 0.00 0.00
11:53 am 11:53 Sunny 89 31.7 51 10.6 27 27 SSE 10 17 29.94 1014 10 16 0.00 0.00
12:53 pm 12:53 Sunny 92 33.3 47 8.3 21 21 SE 14 22 29.92 1013 10 16 0.00 0.00
1:53 pm 13:53 Sunny 93 33.9 45 7.2 19 19 SSE 13 20 29.91 1013 10 16 0.00 0.00
2:53 pm 14:53 Sunny 94 34.4 45 7.2 18 18 undefined N/A 29.88 1012 10 16 0.00 0.00
3:53 pm 15:53 Sunny 96 35.6 44 6.7 17 17 SSE 14 22 29.86 1011 10 16 0.00 0.00
4:53 pm 16:53 Sunny 97 36.1 43 6.1 16 16 SE 15 24 29.84 1011 10 16 0.00 0.00
5:53 pm 17:53 Sunny 96 35.6 42 5.6 15 15 SE 8 13 29.83 1010 10 16 0.00 0.00
6:53 pm 18:53 Sunny 95 35 45 7.2 18 18 SE 14 22 29.81 1010 10 16 0.00 0.00
7:53 pm 19:53 Sunny 94 34.4 43 6.1 17 17 SSE 15 24 29.82 1010 10 16 0.00 0.00
8:53 pm 20:53 Sunny 91 32.8 44 6.7 20 20 SSE 16 26 29.83 1010 10 16 0.00 0.00
9:53 pm 21:53 Clear 87 30.6 46 7.8 24 24 SE 10 17 29.84 1011 10 16 0.00 0.00
10:53 pm 22:53 Clear 85 29.4 48 8.9 28 28 SSE 13 20 29.86 1011 10 16 0.00 0.00
11:53 pm 23:53 Clear 82 27.8 48 8.9 31 31 SSE 12 19 29.88 1012 10 16 0.00 0.00

Powered by AerisWeather